Volver al catálogo

FENGYUN 1C DEB

ActivoSSO
NORAD 31361·DEBRIS·🇨🇳 China

Lanzado May 10, 1999 desde Taiyuan Satellite Launch Center

Loading…

Próximos Pases (próximas 24 horas)

TLE

ActualizadoSource: Space-Track

Época: Sep 12, 2026, 08:54 UTC

1 31361U 99025BRR 26255.37128985  .00000115  00000-0  76324-4 0  9995
2 31361  98.5843 226.0989 0045213   3.0842 357.0604 14.17877738  4227

Sigue FENGYUN 1C DEB en tiempo real con AllMySat

Download on the App Store